Starlink 31147

operational
NORAD ID: 58681 Int'l Des: 2023-211 Owner: SPXS Country: US Constellation: starlink
LEOCIRCULAR

Starlink 31147について

説明を読み込み中...

リアルタイム位置

3D地球を読み込み中...

次回通過

高度履歴

Altitude vs Time

uPlot chart will show altitude changes over time

軌道要素

1 58681U 23211Q 25261.20443923 -.00000944 00000-0 -24803-4 0 9990
2 58681 43.0033 339.5196 0001020 252.4785 107.5955 15.27568701 96082
Epoch: Sep 18, 2025 • Age: 19 hours

現在のステータス

高度 486.1 km
速度 7.63 km/s
衛星直下点 39.41°N, 37.53°E
打ち上げ日 Dec 29, 2023
運用期間 1.7 years
タイプ internet

技術仕様

分類 Payload
質量 730.00 kg
乾燥質量 700.00 kg
総質量 730.00 kg
長さ 0.30 m
直径 4.10 m
スパン 29.00 m
形状 Box + pan
製造者 SPXS
バスタイプ Starlink V2M
フェーズステータス In Orbit
所有者/国 SPXS/US

大規模コンステレーション

Loading constellations...